owner,sensor,date,latitude,longitude,vertical_datum,sea_water_temperature,qcFlag 
SCCF RECON,ioos:station:SCCF:11:1,2019-05-01T04:00:00Z,26.4679,-82.0631,1.74,26.9,11111222 
SCCF RECON,ioos:station:SCCF:11:1,2019-05-01T05:00:00Z,26.4679,-82.0631,1.74,27.0,11111222 
SCCF RECON,ioos:station:SCCF:11:1,2019-05-01T06:00:00Z,26.4679,-82.0631,1.74,26.94,11111222 
SCCF RECON,ioos:station:SCCF:11:1,2019-05-01T07:00:00Z,26.4679,-82.0631,1.74,26.85,11111222 
SCCF RECON,ioos:station:SCCF:11:1,2019-05-01T08:00:00Z,26.4679,-82.0631,1.74,26.9,11111222 
SCCF RECON,ioos:station:SCCF:11:1,2019-05-01T09:00:00Z,26.4679,-82.0631,1.74,26.81,11111222 
SCCF RECON,ioos:station:SCCF:11:1,2019-05-01T10:00:00Z,26.4679,-82.0631,1.74,26.79,11111222 
SCCF RECON,ioos:station:SCCF:11:1,2019-05-01T11:00:00Z,26.4679,-82.0631,1.74,26.4,11111222 
SCCF RECON,ioos:station:SCCF:11:1,2019-05-01T12:00:00Z,26.4679,-82.0631,1.74,26.16,11111222 
SCCF RECON,ioos:station:SCCF:11:1,2019-05-01T13:00:00Z,26.4679,-82.0631,1.74,26.27,11111222 
SCCF RECON,ioos:station:SCCF:11:1,2019-05-01T14:00:00Z,26.4679,-82.0631,1.74,26.24,11111222 
SCCF RECON,ioos:station:SCCF:11:1,2019-05-01T15:00:00Z,26.4679,-82.0631,1.74,26.39,11111222 
SCCF RECON,ioos:station:SCCF:11:1,2019-05-01T16:00:00Z,26.4679,-82.0631,1.74,26.38,11111222 
SCCF RECON,ioos:station:SCCF:11:1,2019-05-01T17:00:00Z,26.4679,-82.0631,1.74,26.46,11111222 
SCCF RECON,ioos:station:SCCF:11:1,2019-05-01T18:00:00Z,26.4679,-82.0631,1.74,26.57,11111222 
SCCF RECON,ioos:station:SCCF:11:1,2019-05-01T19:00:00Z,26.4679,-82.0631,1.74,26.99,11111222 
SCCF RECON,ioos:station:SCCF:11:1,2019-05-01T20:00:00Z,26.4679,-82.0631,1.74,27.24,11111222 
SCCF RECON,ioos:station:SCCF:11:1,2019-05-01T21:00:00Z,26.4679,-82.0631,1.74,27.55,11111222 
SCCF RECON,ioos:station:SCCF:11:1,2019-05-01T22:00:00Z,26.4679,-82.0631,1.74,27.63,11111222 
SCCF RECON,ioos:station:SCCF:11:1,2019-05-01T23:00:00Z,26.4679,-82.0631,1.74,27.66,11111222 
SCCF RECON,ioos:station:SCCF:11:1,2019-05-02T04:00:00Z,26.4679,-82.0631,1.74,26.44,11111222 
SCCF RECON,ioos:station:SCCF:11:1,2019-05-02T05:00:00Z,26.4679,-82.0631,1.74,26.44,11111222 
SCCF RECON,ioos:station:SCCF:11:1,2019-05-02T06:00:00Z,26.4679,-82.0631,1.74,26.34,11111222 
SCCF RECON,ioos:station:SCCF:11:1,2019-05-02T07:00:00Z,26.4679,-82.0631,1.74,26.37,11111222 
SCCF RECON,ioos:station:SCCF:11:1,2019-05-02T08:00:00Z,26.4679,-82.0631,1.74,26.39,11111222 
SCCF RECON,ioos:station:SCCF:11:1,2019-05-02T09:00:00Z,26.4679,-82.0631,1.74,26.3,11111222 
SCCF RECON,ioos:station:SCCF:11:1,2019-05-02T10:00:00Z,26.4679,-82.0631,1.74,26.23,11111222 
SCCF RECON,ioos:station:SCCF:11:1,2019-05-02T11:00:00Z,26.4679,-82.0631,1.74,26.2,11111222 
SCCF RECON,ioos:station:SCCF:11:1,2019-05-02T12:00:00Z,26.4679,-82.0631,1.74,26.13,11111222 
SCCF RECON,ioos:station:SCCF:11:1,2019-05-02T13:00:00Z,26.4679,-82.0631,1.74,25.93,11111222 
SCCF RECON,ioos:station:SCCF:11:1,2019-05-02T14:00:00Z,26.4679,-82.0631,1.74,26.16,11111222 
SCCF RECON,ioos:station:SCCF:11:1,2019-05-02T15:00:00Z,26.4679,-82.0631,1.74,26.21,11111222 
SCCF RECON,ioos:station:SCCF:11:1,2019-05-02T16:00:00Z,26.4679,-82.0631,1.74,26.36,11111222 
SCCF RECON,ioos:station:SCCF:11:1,2019-05-02T17:00:00Z,26.4679,-82.0631,1.74,26.53,11111222 
SCCF RECON,ioos:station:SCCF:11:1,2019-05-02T18:00:00Z,26.4679,-82.0631,1.74,27.02,11111222 
SCCF RECON,ioos:station:SCCF:11:1,2019-05-02T19:00:00Z,26.4679,-82.0631,1.74,27.54,11111222 
SCCF RECON,ioos:station:SCCF:11:1,2019-05-02T20:00:00Z,26.4679,-82.0631,1.74,28.05,11111222 
SCCF RECON,ioos:station:SCCF:11:1,2019-05-02T21:00:00Z,26.4679,-82.0631,1.74,28.37,11111222 
SCCF RECON,ioos:station:SCCF:11:1,2019-05-02T22:00:00Z,26.4679,-82.0631,1.74,28.62,11111222 
SCCF RECON,ioos:station:SCCF:11:1,2019-05-02T23:00:00Z,26.4679,-82.0631,1.74,28.51,11111222 
SCCF RECON,ioos:station:SCCF:11:1,2019-05-03T04:00:00Z,26.4679,-82.0631,1.74,27.35,11111222 
SCCF RECON,ioos:station:SCCF:11:1,2019-05-03T05:00:00Z,26.4679,-82.0631,1.74,27.3,11111222 
SCCF RECON,ioos:station:SCCF:11:1,2019-05-03T06:00:00Z,26.4679,-82.0631,1.74,27.2,11111222 
SCCF RECON,ioos:station:SCCF:11:1,2019-05-03T07:00:00Z,26.4679,-82.0631,1.74,27.19,11111222 
SCCF RECON,ioos:station:SCCF:11:1,2019-05-03T08:00:00Z,26.4679,-82.0631,1.74,27.22,11111222 
SCCF RECON,ioos:station:SCCF:11:1,2019-05-03T09:00:00Z,26.4679,-82.0631,1.74,27.24,11111222 
SCCF RECON,ioos:station:SCCF:11:1,2019-05-03T10:00:00Z,26.4679,-82.0631,1.74,27.21,11111222 
SCCF RECON,ioos:station:SCCF:11:1,2019-05-03T11:00:00Z,26.4679,-82.0631,1.74,27.19,11111222 
SCCF RECON,ioos:station:SCCF:11:1,2019-05-03T12:00:00Z,26.4679,-82.0631,1.74,27.14,11111222 
SCCF RECON,ioos:station:SCCF:11:1,2019-05-03T13:00:00Z,26.4679,-82.0631,1.74,26.98,11111222 
SCCF RECON,ioos:station:SCCF:11:1,2019-05-03T14:00:00Z,26.4679,-82.0631,1.74,27.03,11111222 
SCCF RECON,ioos:station:SCCF:11:1,2019-05-03T15:00:00Z,26.4679,-82.0631,1.74,27.12,11111222 
SCCF RECON,ioos:station:SCCF:11:1,2019-05-03T16:00:00Z,26.4679,-82.0631,1.74,27.31,11111222 
SCCF RECON,ioos:station:SCCF:11:1,2019-05-03T17:00:00Z,26.4679,-82.0631,1.74,27.3,11111222 
SCCF RECON,ioos:station:SCCF:11:1,2019-05-03T18:00:00Z,26.4679,-82.0631,1.74,27.85,11111222 
SCCF RECON,ioos:station:SCCF:11:1,2019-05-03T19:00:00Z,26.4679,-82.0631,1.74,28.35,11111222 
SCCF RECON,ioos:station:SCCF:11:1,2019-05-03T20:00:00Z,26.4679,-82.0631,1.74,28.79,11111222 
SCCF RECON,ioos:station:SCCF:11:1,2019-05-03T21:00:00Z,26.4679,-82.0631,1.74,29.22,11111222 
SCCF RECON,ioos:station:SCCF:11:1,2019-05-03T22:00:00Z,26.4679,-82.0631,1.74,29.41,11111222 
SCCF RECON,ioos:station:SCCF:11:1,2019-05-03T23:00:00Z,26.4679,-82.0631,1.74,29.43,11111222 
SCCF RECON,ioos:station:SCCF:11:1,2019-05-04T04:00:00Z,26.4679,-82.0631,1.74,28.44,11111222 
SCCF RECON,ioos:station:SCCF:11:1,2019-05-04T05:00:00Z,26.4679,-82.0631,1.74,28.47,11111222 
SCCF RECON,ioos:station:SCCF:11:1,2019-05-04T06:00:00Z,26.4679,-82.0631,1.74,28.13,11111222 
SCCF RECON,ioos:station:SCCF:11:1,2019-05-04T07:00:00Z,26.4679,-82.0631,1.74,28.18,11111222 
SCCF RECON,ioos:station:SCCF:11:1,2019-05-04T08:00:00Z,26.4679,-82.0631,1.74,28.12,11111222 
SCCF RECON,ioos:station:SCCF:11:1,2019-05-04T09:00:00Z,26.4679,-82.0631,1.74,28.06,11111222 
SCCF RECON,ioos:station:SCCF:11:1,2019-05-04T10:00:00Z,26.4679,-82.0631,1.74,28.03,11111222 
SCCF RECON,ioos:station:SCCF:11:1,2019-05-04T11:00:00Z,26.4679,-82.0631,1.74,27.96,11111222 
SCCF RECON,ioos:station:SCCF:11:1,2019-05-04T12:00:00Z,26.4679,-82.0631,1.74,27.92,11111222 
SCCF RECON,ioos:station:SCCF:11:1,2019-05-04T13:00:00Z,26.4679,-82.0631,1.74,27.88,11111222 
SCCF RECON,ioos:station:SCCF:11:1,2019-05-04T14:00:00Z,26.4679,-82.0631,1.74,27.88,11111222 
SCCF RECON,ioos:station:SCCF:11:1,2019-05-04T15:00:00Z,26.4679,-82.0631,1.74,28.0,11111222 
SCCF RECON,ioos:station:SCCF:11:1,2019-05-04T16:00:00Z,26.4679,-82.0631,1.74,28.0,11111222 
SCCF RECON,ioos:station:SCCF:11:1,2019-05-04T17:00:00Z,26.4679,-82.0631,1.74,28.08,11111222 
SCCF RECON,ioos:station:SCCF:11:1,2019-05-04T18:00:00Z,26.4679,-82.0631,1.74,28.19,11111222 
SCCF RECON,ioos:station:SCCF:11:1,2019-05-04T19:00:00Z,26.4679,-82.0631,1.74,28.86,11111222 
SCCF RECON,ioos:station:SCCF:11:1,2019-05-04T20:00:00Z,26.4679,-82.0631,1.74,29.38,11111222 
SCCF RECON,ioos:station:SCCF:11:1,2019-05-04T21:00:00Z,26.4679,-82.0631,1.74,29.79,11111222 
SCCF RECON,ioos:station:SCCF:11:1,2019-05-04T22:00:00Z,26.4679,-82.0631,1.74,29.79,11111222 
SCCF RECON,ioos:station:SCCF:11:1,2019-05-04T23:00:00Z,26.4679,-82.0631,1.74,29.82,11111222 
SCCF RECON,ioos:station:SCCF:11:1,2019-05-05T04:00:00Z,26.4679,-82.0631,1.74,28.81,11111222 
SCCF RECON,ioos:station:SCCF:11:1,2019-05-05T05:00:00Z,26.4679,-82.0631,1.74,28.72,11111222 
SCCF RECON,ioos:station:SCCF:11:1,2019-05-05T06:00:00Z,26.4679,-82.0631,1.74,28.61,11111222 
SCCF RECON,ioos:station:SCCF:11:1,2019-05-05T07:00:00Z,26.4679,-82.0631,1.74,28.47,11111222 
SCCF RECON,ioos:station:SCCF:11:1,2019-05-05T08:00:00Z,26.4679,-82.0631,1.74,28.46,11111222 
SCCF RECON,ioos:station:SCCF:11:1,2019-05-05T09:00:00Z,26.4679,-82.0631,1.74,28.47,11111222 
SCCF RECON,ioos:station:SCCF:11:1,2019-05-05T10:00:00Z,26.4679,-82.0631,1.74,28.49,11111222 
SCCF RECON,ioos:station:SCCF:11:1,2019-05-05T11:00:00Z,26.4679,-82.0631,1.74,28.46,11111222 
SCCF RECON,ioos:station:SCCF:11:1,2019-05-05T12:00:00Z,26.4679,-82.0631,1.74,28.45,11111222 
SCCF RECON,ioos:station:SCCF:11:1,2019-05-05T13:00:00Z,26.4679,-82.0631,1.74,28.48,11111222 
SCCF RECON,ioos:station:SCCF:11:1,2019-05-05T14:00:00Z,26.4679,-82.0631,1.74,28.08,11111222 
SCCF RECON,ioos:station:SCCF:11:1,2019-05-05T15:00:00Z,26.4679,-82.0631,1.74,28.22,11111222 
SCCF RECON,ioos:station:SCCF:11:1,2019-05-05T16:00:00Z,26.4679,-82.0631,1.74,28.48,11111222 
SCCF RECON,ioos:station:SCCF:11:1,2019-05-05T17:00:00Z,26.4679,-82.0631,1.74,28.47,11111222 
SCCF RECON,ioos:station:SCCF:11:1,2019-05-05T18:00:00Z,26.4679,-82.0631,1.74,28.58,11111222 
SCCF RECON,ioos:station:SCCF:11:1,2019-05-05T19:00:00Z,26.4679,-82.0631,1.74,28.71,11111222 
SCCF RECON,ioos:station:SCCF:11:1,2019-05-05T20:00:00Z,26.4679,-82.0631,1.74,29.05,11111222 
SCCF RECON,ioos:station:SCCF:11:1,2019-05-05T21:00:00Z,26.4679,-82.0631,1.74,29.3,11111222 
SCCF RECON,ioos:station:SCCF:11:1,2019-05-05T22:00:00Z,26.4679,-82.0631,1.74,29.5,11111222 
SCCF RECON,ioos:station:SCCF:11:1,2019-05-05T23:00:00Z,26.4679,-82.0631,1.74,29.58,11111222 
SCCF RECON,ioos:station:SCCF:11:1,2019-05-06T04:00:00Z,26.4679,-82.0631,1.74,28.96,11111222 
SCCF RECON,ioos:station:SCCF:11:1,2019-05-06T05:00:00Z,26.4679,-82.0631,1.74,28.94,11111222 
SCCF RECON,ioos:station:SCCF:11:1,2019-05-06T06:00:00Z,26.4679,-82.0631,1.74,28.95,11111222 
SCCF RECON,ioos:station:SCCF:11:1,2019-05-06T07:00:00Z,26.4679,-82.0631,1.74,28.89,11111222 
SCCF RECON,ioos:station:SCCF:11:1,2019-05-06T08:00:00Z,26.4679,-82.0631,1.74,28.71,11111222 
SCCF RECON,ioos:station:SCCF:11:1,2019-05-06T09:00:00Z,26.4679,-82.0631,1.74,28.74,11111222 
SCCF RECON,ioos:station:SCCF:11:1,2019-05-06T10:00:00Z,26.4679,-82.0631,1.74,28.58,11111222 
SCCF RECON,ioos:station:SCCF:11:1,2019-05-06T11:00:00Z,26.4679,-82.0631,1.74,28.52,11111222 
SCCF RECON,ioos:station:SCCF:11:1,2019-05-06T12:00:00Z,26.4679,-82.0631,1.74,28.45,11111222 
SCCF RECON,ioos:station:SCCF:11:1,2019-05-06T13:00:00Z,26.4679,-82.0631,1.74,28.49,11111222 
SCCF RECON,ioos:station:SCCF:11:1,2019-05-06T14:00:00Z,26.4679,-82.0631,1.74,28.46,11111222 
SCCF RECON,ioos:station:SCCF:11:1,2019-05-06T15:00:00Z,26.4679,-82.0631,1.74,28.62,11111222 
SCCF RECON,ioos:station:SCCF:11:1,2019-05-06T16:00:00Z,26.4679,-82.0631,1.74,28.67,11111222 
SCCF RECON,ioos:station:SCCF:11:1,2019-05-06T17:00:00Z,26.4679,-82.0631,1.74,28.73,11111222 
SCCF RECON,ioos:station:SCCF:11:1,2019-05-06T18:00:00Z,26.4679,-82.0631,1.74,28.77,11111222 
SCCF RECON,ioos:station:SCCF:11:1,2019-05-06T19:00:00Z,26.4679,-82.0631,1.74,29.25,11111222 
SCCF RECON,ioos:station:SCCF:11:1,2019-05-06T20:00:00Z,26.4679,-82.0631,1.74,29.41,11111222 
SCCF RECON,ioos:station:SCCF:11:1,2019-05-06T21:00:00Z,26.4679,-82.0631,1.74,29.59,11111222 
SCCF RECON,ioos:station:SCCF:11:1,2019-05-06T22:00:00Z,26.4679,-82.0631,1.74,29.76,11111222 
SCCF RECON,ioos:station:SCCF:11:1,2019-05-06T23:00:00Z,26.4679,-82.0631,1.74,29.76,11111222 
SCCF RECON,ioos:station:SCCF:11:1,2019-05-07T04:00:00Z,26.4679,-82.0631,1.74,29.34,11111222 
SCCF RECON,ioos:station:SCCF:11:1,2019-05-07T05:00:00Z,26.4679,-82.0631,1.74,29.24,11111222 
SCCF RECON,ioos:station:SCCF:11:1,2019-05-07T06:00:00Z,26.4679,-82.0631,1.74,29.15,11111222 
SCCF RECON,ioos:station:SCCF:11:1,2019-05-07T07:00:00Z,26.4679,-82.0631,1.74,29.04,11111222 
SCCF RECON,ioos:station:SCCF:11:1,2019-05-07T08:00:00Z,26.4679,-82.0631,1.74,28.88,11111222 
SCCF RECON,ioos:station:SCCF:11:1,2019-05-07T09:00:00Z,26.4679,-82.0631,1.74,28.83,11111222 
SCCF RECON,ioos:station:SCCF:11:1,2019-05-07T10:00:00Z,26.4679,-82.0631,1.74,28.79,11111222 
SCCF RECON,ioos:station:SCCF:11:1,2019-05-07T11:00:00Z,26.4679,-82.0631,1.74,28.74,11111222 
SCCF RECON,ioos:station:SCCF:11:1,2019-05-07T12:00:00Z,26.4679,-82.0631,1.74,28.71,11111222 
SCCF RECON,ioos:station:SCCF:11:1,2019-05-07T13:00:00Z,26.4679,-82.0631,1.74,28.69,11111222 
SCCF RECON,ioos:station:SCCF:11:1,2019-05-07T14:00:00Z,26.4679,-82.0631,1.74,28.7,11111222 
SCCF RECON,ioos:station:SCCF:11:1,2019-05-07T15:00:00Z,26.4679,-82.0631,1.74,28.81,11111222 
SCCF RECON,ioos:station:SCCF:11:1,2019-05-07T16:00:00Z,26.4679,-82.0631,1.74,29.11,11111222 
SCCF RECON,ioos:station:SCCF:11:1,2019-05-07T17:00:00Z,26.4679,-82.0631,1.74,29.16,11111222 
SCCF RECON,ioos:station:SCCF:11:1,2019-05-07T18:00:00Z,26.4679,-82.0631,1.74,29.27,11111222 
SCCF RECON,ioos:station:SCCF:11:1,2019-05-07T19:00:00Z,26.4679,-82.0631,1.74,29.91,11111222 
SCCF RECON,ioos:station:SCCF:11:1,2019-05-07T20:00:00Z,26.4679,-82.0631,1.74,30.01,11111222 
SCCF RECON,ioos:station:SCCF:11:1,2019-05-07T21:00:00Z,26.4679,-82.0631,1.74,30.22,11111222 
SCCF RECON,ioos:station:SCCF:11:1,2019-05-07T22:00:00Z,26.4679,-82.0631,1.74,30.52,11111222 
SCCF RECON,ioos:station:SCCF:11:1,2019-05-07T23:00:00Z,26.4679,-82.0631,1.74,30.57,11111222 
SCCF RECON,ioos:station:SCCF:11:1,2019-05-08T04:00:00Z,26.4679,-82.0631,1.74,29.6,11111222 
SCCF RECON,ioos:station:SCCF:11:1,2019-05-08T05:00:00Z,26.4679,-82.0631,1.74,29.57,11111222 
SCCF RECON,ioos:station:SCCF:11:1,2019-05-08T06:00:00Z,26.4679,-82.0631,1.74,29.41,11111222 
SCCF RECON,ioos:station:SCCF:11:1,2019-05-08T07:00:00Z,26.4679,-82.0631,1.74,29.12,11111222 
SCCF RECON,ioos:station:SCCF:11:1,2019-05-08T08:00:00Z,26.4679,-82.0631,1.74,29.05,11111222 
SCCF RECON,ioos:station:SCCF:11:1,2019-05-08T09:00:00Z,26.4679,-82.0631,1.74,28.86,11111222 
SCCF RECON,ioos:station:SCCF:11:1,2019-05-08T10:00:00Z,26.4679,-82.0631,1.74,28.74,11111222 
SCCF RECON,ioos:station:SCCF:11:1,2019-05-08T11:00:00Z,26.4679,-82.0631,1.74,28.8,11111222 
SCCF RECON,ioos:station:SCCF:11:1,2019-05-08T13:00:00Z,26.4679,-82.0631,1.74,28.75,11111222 
SCCF RECON,ioos:station:SCCF:11:1,2019-05-08T14:00:00Z,26.4679,-82.0631,1.74,28.78,11111222 
SCCF RECON,ioos:station:SCCF:11:1,2019-05-08T15:00:00Z,26.4679,-82.0631,1.74,28.98,11111222 
SCCF RECON,ioos:station:SCCF:11:1,2019-05-08T16:00:00Z,26.4679,-82.0631,1.74,28.63,11111222 
SCCF RECON,ioos:station:SCCF:11:1,2019-05-08T18:00:00Z,26.4679,-82.0631,1.74,29.03,11111222 
SCCF RECON,ioos:station:SCCF:11:1,2019-05-08T19:00:00Z,26.4679,-82.0631,1.74,29.03,11111222 
SCCF RECON,ioos:station:SCCF:11:1,2019-05-08T20:00:00Z,26.4679,-82.0631,1.74,29.47,11111222 
SCCF RECON,ioos:station:SCCF:11:1,2019-05-08T21:00:00Z,26.4679,-82.0631,1.74,29.7,11111222 
SCCF RECON,ioos:station:SCCF:11:1,2019-05-08T22:00:00Z,26.4679,-82.0631,1.74,30.12,11111222 
SCCF RECON,ioos:station:SCCF:11:1,2019-05-08T23:00:00Z,26.4679,-82.0631,1.74,30.15,11111222 
SCCF RECON,ioos:station:SCCF:11:1,2019-05-09T04:00:00Z,26.4679,-82.0631,1.74,29.42,11111222 
SCCF RECON,ioos:station:SCCF:11:1,2019-05-09T05:00:00Z,26.4679,-82.0631,1.74,28.97,11111222 
SCCF RECON,ioos:station:SCCF:11:1,2019-05-09T06:00:00Z,26.4679,-82.0631,1.74,29.15,11111222 
SCCF RECON,ioos:station:SCCF:11:1,2019-05-09T07:00:00Z,26.4679,-82.0631,1.74,28.94,11111222 
SCCF RECON,ioos:station:SCCF:11:1,2019-05-09T08:00:00Z,26.4679,-82.0631,1.74,28.77,11111222 
SCCF RECON,ioos:station:SCCF:11:1,2019-05-09T09:00:00Z,26.4679,-82.0631,1.74,28.62,11111222 
SCCF RECON,ioos:station:SCCF:11:1,2019-05-09T10:00:00Z,26.4679,-82.0631,1.74,28.5,11111222 
SCCF RECON,ioos:station:SCCF:11:1,2019-05-09T11:00:00Z,26.4679,-82.0631,1.74,28.55,11111222 
SCCF RECON,ioos:station:SCCF:11:1,2019-05-09T12:00:00Z,26.4679,-82.0631,1.74,28.51,11111222 
SCCF RECON,ioos:station:SCCF:11:1,2019-05-09T13:00:00Z,26.4679,-82.0631,1.74,28.59,11111222 
SCCF RECON,ioos:station:SCCF:11:1,2019-05-09T14:00:00Z,26.4679,-82.0631,1.74,28.74,11111222 
SCCF RECON,ioos:station:SCCF:11:1,2019-05-09T15:00:00Z,26.4679,-82.0631,1.74,28.75,11111222 
SCCF RECON,ioos:station:SCCF:11:1,2019-05-09T16:00:00Z,26.4679,-82.0631,1.74,28.65,11111222 
SCCF RECON,ioos:station:SCCF:11:1,2019-05-09T17:00:00Z,26.4679,-82.0631,1.74,28.68,11111222 
SCCF RECON,ioos:station:SCCF:11:1,2019-05-09T18:00:00Z,26.4679,-82.0631,1.74,29.08,11111222 
SCCF RECON,ioos:station:SCCF:11:1,2019-05-09T19:00:00Z,26.4679,-82.0631,1.74,29.2,11111222 
SCCF RECON,ioos:station:SCCF:11:1,2019-05-09T20:00:00Z,26.4679,-82.0631,1.74,29.63,11111222 
SCCF RECON,ioos:station:SCCF:11:1,2019-05-09T21:00:00Z,26.4679,-82.0631,1.74,29.71,11111222 
SCCF RECON,ioos:station:SCCF:11:1,2019-05-09T22:00:00Z,26.4679,-82.0631,1.74,29.98,11111222 
SCCF RECON,ioos:station:SCCF:11:1,2019-05-09T23:00:00Z,26.4679,-82.0631,1.74,29.73,11111222 
SCCF RECON,ioos:station:SCCF:11:1,2019-05-10T04:00:00Z,26.4679,-82.0631,1.74,29.31,11111222 
SCCF RECON,ioos:station:SCCF:11:1,2019-05-10T05:00:00Z,26.4679,-82.0631,1.74,29.19,11111222 
SCCF RECON,ioos:station:SCCF:11:1,2019-05-10T06:00:00Z,26.4679,-82.0631,1.74,28.87,11111222 
SCCF RECON,ioos:station:SCCF:11:1,2019-05-10T07:00:00Z,26.4679,-82.0631,1.74,28.81,11111222 
SCCF RECON,ioos:station:SCCF:11:1,2019-05-10T08:00:00Z,26.4679,-82.0631,1.74,28.5,11111222 
SCCF RECON,ioos:station:SCCF:11:1,2019-05-10T09:00:00Z,26.4679,-82.0631,1.74,28.35,11111222 
SCCF RECON,ioos:station:SCCF:11:1,2019-05-10T10:00:00Z,26.4679,-82.0631,1.74,28.2,11111222 
SCCF RECON,ioos:station:SCCF:11:1,2019-05-10T11:00:00Z,26.4679,-82.0631,1.74,28.06,11111222 
SCCF RECON,ioos:station:SCCF:11:1,2019-05-10T12:00:00Z,26.4679,-82.0631,1.74,28.06,11111222 
SCCF RECON,ioos:station:SCCF:11:1,2019-05-10T13:00:00Z,26.4679,-82.0631,1.74,28.06,11111222 
SCCF RECON,ioos:station:SCCF:11:1,2019-05-10T14:00:00Z,26.4679,-82.0631,1.74,28.24,11111222 
SCCF RECON,ioos:station:SCCF:11:1,2019-05-10T15:00:00Z,26.4679,-82.0631,1.74,28.12,11111222 
SCCF RECON,ioos:station:SCCF:11:1,2019-05-10T16:00:00Z,26.4679,-82.0631,1.74,28.45,11111222 
SCCF RECON,ioos:station:SCCF:11:1,2019-05-10T17:00:00Z,26.4679,-82.0631,1.74,28.69,11111222 
SCCF RECON,ioos:station:SCCF:11:1,2019-05-10T18:00:00Z,26.4679,-82.0631,1.74,29.47,11111222 
SCCF RECON,ioos:station:SCCF:11:1,2019-05-10T19:00:00Z,26.4679,-82.0631,1.74,29.21,11111222 
SCCF RECON,ioos:station:SCCF:11:1,2019-05-10T20:00:00Z,26.4679,-82.0631,1.74,29.34,11111222 
SCCF RECON,ioos:station:SCCF:11:1,2019-05-10T21:00:00Z,26.4679,-82.0631,1.74,29.46,11111222 
SCCF RECON,ioos:station:SCCF:11:1,2019-05-10T22:00:00Z,26.4679,-82.0631,1.74,29.02,11111222 
SCCF RECON,ioos:station:SCCF:11:1,2019-05-10T23:00:00Z,26.4679,-82.0631,1.74,29.89,11111222 
SCCF RECON,ioos:station:SCCF:11:1,2019-05-11T04:00:00Z,26.4679,-82.0631,1.74,29.73,11111222 
SCCF RECON,ioos:station:SCCF:11:1,2019-05-11T05:00:00Z,26.4679,-82.0631,1.74,29.58,11111222 
SCCF RECON,ioos:station:SCCF:11:1,2019-05-11T06:00:00Z,26.4679,-82.0631,1.74,29.45,11111222 
SCCF RECON,ioos:station:SCCF:11:1,2019-05-11T07:00:00Z,26.4679,-82.0631,1.74,29.08,11111222 
SCCF RECON,ioos:station:SCCF:11:1,2019-05-11T08:00:00Z,26.4679,-82.0631,1.74,29.15,11111222 
SCCF RECON,ioos:station:SCCF:11:1,2019-05-11T09:00:00Z,26.4679,-82.0631,1.74,28.48,11111222 
SCCF RECON,ioos:station:SCCF:11:1,2019-05-11T10:00:00Z,26.4679,-82.0631,1.74,28.62,11111222 
SCCF RECON,ioos:station:SCCF:11:1,2019-05-11T11:00:00Z,26.4679,-82.0631,1.74,28.37,11111222 
SCCF RECON,ioos:station:SCCF:11:1,2019-05-11T12:00:00Z,26.4679,-82.0631,1.74,28.34,11111222 
SCCF RECON,ioos:station:SCCF:11:1,2019-05-11T13:00:00Z,26.4679,-82.0631,1.74,28.39,11111222 
SCCF RECON,ioos:station:SCCF:11:1,2019-05-13T14:00:00Z,26.4679,-82.0631,1.74,29.5,11111222 
SCCF RECON,ioos:station:SCCF:11:1,2019-05-13T15:00:00Z,26.4679,-82.0631,1.74,29.47,11111222 
SCCF RECON,ioos:station:SCCF:11:1,2019-05-13T16:00:00Z,26.4679,-82.0631,1.74,29.79,11111222 
SCCF RECON,ioos:station:SCCF:11:1,2019-05-13T17:00:00Z,26.4679,-82.0631,1.74,30.14,11111222 
SCCF RECON,ioos:station:SCCF:11:1,2019-05-13T18:00:00Z,26.4679,-82.0631,1.74,30.49,11111222 
SCCF RECON,ioos:station:SCCF:11:1,2019-05-13T19:00:00Z,26.4679,-82.0631,1.74,30.73,11111222 
SCCF RECON,ioos:station:SCCF:11:1,2019-05-13T20:00:00Z,26.4679,-82.0631,1.74,30.85,11111222 
SCCF RECON,ioos:station:SCCF:11:1,2019-05-13T21:00:00Z,26.4679,-82.0631,1.74,30.9,11111222 
SCCF RECON,ioos:station:SCCF:11:1,2019-05-13T22:00:00Z,26.4679,-82.0631,1.74,30.85,11111222 
SCCF RECON,ioos:station:SCCF:11:1,2019-05-13T23:00:00Z,26.4679,-82.0631,1.74,30.63,11111222 
SCCF RECON,ioos:station:SCCF:11:1,2019-05-14T04:00:00Z,26.4679,-82.0631,1.74,29.77,11111222 
SCCF RECON,ioos:station:SCCF:11:1,2019-05-14T06:00:00Z,26.4679,-82.0631,1.74,29.99,11111222 
SCCF RECON,ioos:station:SCCF:11:1,2019-05-14T07:00:00Z,26.4679,-82.0631,1.74,29.94,11111222 
SCCF RECON,ioos:station:SCCF:11:1,2019-05-14T08:00:00Z,26.4679,-82.0631,1.74,29.83,11111222 
SCCF RECON,ioos:station:SCCF:11:1,2019-05-14T09:00:00Z,26.4679,-82.0631,1.74,29.69,11111222 
SCCF RECON,ioos:station:SCCF:11:1,2019-05-14T10:00:00Z,26.4679,-82.0631,1.74,29.5,11111222 
SCCF RECON,ioos:station:SCCF:11:1,2019-05-14T12:00:00Z,26.4679,-82.0631,1.74,29.46,11111222 
SCCF RECON,ioos:station:SCCF:11:1,2019-05-14T13:00:00Z,26.4679,-82.0631,1.74,29.47,11111222 
SCCF RECON,ioos:station:SCCF:11:1,2019-05-14T14:00:00Z,26.4679,-82.0631,1.74,29.61,11111222 
SCCF RECON,ioos:station:SCCF:11:1,2019-05-14T15:00:00Z,26.4679,-82.0631,1.74,29.53,11111222 
SCCF RECON,ioos:station:SCCF:11:1,2019-05-14T16:00:00Z,26.4679,-82.0631,1.74,29.5,11111222 
SCCF RECON,ioos:station:SCCF:11:1,2019-05-14T17:00:00Z,26.4679,-82.0631,1.74,29.61,11111222 
SCCF RECON,ioos:station:SCCF:11:1,2019-05-14T18:00:00Z,26.4679,-82.0631,1.74,29.73,11111222 
SCCF RECON,ioos:station:SCCF:11:1,2019-05-14T19:00:00Z,26.4679,-82.0631,1.74,29.79,11111222 
SCCF RECON,ioos:station:SCCF:11:1,2019-05-14T20:00:00Z,26.4679,-82.0631,1.74,29.83,11111222 
SCCF RECON,ioos:station:SCCF:11:1,2019-05-14T21:00:00Z,26.4679,-82.0631,1.74,29.87,11111222 
SCCF RECON,ioos:station:SCCF:11:1,2019-05-14T22:00:00Z,26.4679,-82.0631,1.74,29.79,11111222 
SCCF RECON,ioos:station:SCCF:11:1,2019-05-14T23:00:00Z,26.4679,-82.0631,1.74,29.63,11111222 
SCCF RECON,ioos:station:SCCF:11:1,2019-05-15T04:00:00Z,26.4679,-82.0631,1.74,29.15,11111222 
SCCF RECON,ioos:station:SCCF:11:1,2019-05-15T05:00:00Z,26.4679,-82.0631,1.74,29.06,11111222 
SCCF RECON,ioos:station:SCCF:11:1,2019-05-15T06:00:00Z,26.4679,-82.0631,1.74,28.91,11111222 
SCCF RECON,ioos:station:SCCF:11:1,2019-05-15T07:00:00Z,26.4679,-82.0631,1.74,28.8,11111222 
SCCF RECON,ioos:station:SCCF:11:1,2019-05-15T08:00:00Z,26.4679,-82.0631,1.74,28.77,11111222 
SCCF RECON,ioos:station:SCCF:11:1,2019-05-15T09:00:00Z,26.4679,-82.0631,1.74,28.7,11111222 
SCCF RECON,ioos:station:SCCF:11:1,2019-05-15T10:00:00Z,26.4679,-82.0631,1.74,28.6,11111222 
SCCF RECON,ioos:station:SCCF:11:1,2019-05-15T11:00:00Z,26.4679,-82.0631,1.74,28.49,11111222 
SCCF RECON,ioos:station:SCCF:11:1,2019-05-15T12:00:00Z,26.4679,-82.0631,1.74,28.51,11111222 
SCCF RECON,ioos:station:SCCF:11:1,2019-05-15T13:00:00Z,26.4679,-82.0631,1.74,28.54,11111222 
SCCF RECON,ioos:station:SCCF:11:1,2019-05-15T14:00:00Z,26.4679,-82.0631,1.74,28.48,11111222 
SCCF RECON,ioos:station:SCCF:11:1,2019-05-15T15:00:00Z,26.4679,-82.0631,1.74,28.44,11111222 
SCCF RECON,ioos:station:SCCF:11:1,2019-05-15T16:00:00Z,26.4679,-82.0631,1.74,28.58,11111222 
SCCF RECON,ioos:station:SCCF:11:1,2019-05-15T17:00:00Z,26.4679,-82.0631,1.74,29.13,11111222 
SCCF RECON,ioos:station:SCCF:11:1,2019-05-15T18:00:00Z,26.4679,-82.0631,1.74,29.17,11111222 
SCCF RECON,ioos:station:SCCF:11:1,2019-05-15T19:00:00Z,26.4679,-82.0631,1.74,29.26,11111222 
SCCF RECON,ioos:station:SCCF:11:1,2019-05-15T20:00:00Z,26.4679,-82.0631,1.74,29.44,11111222 
SCCF RECON,ioos:station:SCCF:11:1,2019-05-15T21:00:00Z,26.4679,-82.0631,1.74,29.59,11111222 
SCCF RECON,ioos:station:SCCF:11:1,2019-05-15T22:00:00Z,26.4679,-82.0631,1.74,29.62,11111222 
SCCF RECON,ioos:station:SCCF:11:1,2019-05-15T23:00:00Z,26.4679,-82.0631,1.74,29.56,11111222 
SCCF RECON,ioos:station:SCCF:11:1,2019-05-16T04:00:00Z,26.4679,-82.0631,1.74,28.88,11111222 